BREEZE-M DEB

基本信息
目录编号:
38629
目录名称:
BREEZE-M DEB
国际标识:
2008-011CC
轨道中心:
EARTH
物体状态:
已陨落(2025-03-11)
发射日期:
2008-03-14 UTC
轨道信息
数据来源: 国际轨道数据
星历时间: 2025-03-05T15:26:27+0800
半长轴: 6908.449km
偏心率: 0.0347266
轨道倾角: 49.684°
近地点辐角: 196.946°
升交点赤经: 37.892°
平近点角: 161.965°
近地点: 290.407km
远地点: 770.221km
周期: 95.242分钟
每日圈数: 15.119309
详细信息
发射场:
TTMTR
轨道高度:
LEO
数据来源:
AOE Integration Group
参考系:
TEME
时间系统:
UTC
历元类型:
SGP4
2D轨道图
3D轨道图
轨道高度分析图
轨道倾角分析图
轨道综合分析图
查看轨道综合分析图